Time,TemperatureF,DewpointF,PressureIn,WindDirection,WindDirectionDegrees,WindSpeedMPH,WindSpeedGustMPH,Humidity,HourlyPrecipIn,Conditions,Clouds,dailyrainin,SoftwareType,DateUTC
2014-01-02 00:00:00,33.9,25.1,30.22,NNW,339,12.0,12.0,70,0.00,,,0.00,Wunderground v.1.15,2014-01-02 06:00:00,
2014-01-02 00:10:00,33.5,24.8,30.23,WNW,303,13.0,15.0,70,0.00,,,0.00,Wunderground v.1.15,2014-01-02 06:10:00,
2014-01-02 00:15:00,33.3,24.6,30.23,NW,319,13.0,15.0,70,0.00,,,0.00,Wunderground v.1.15,2014-01-02 06:15:00,
2014-01-02 00:20:00,33.2,24.5,30.23,NW,324,14.0,15.0,70,0.00,,,0.00,Wunderground v.1.15,2014-01-02 06:20:00,
2014-01-02 00:30:00,32.9,24.2,30.23,NNW,328,16.0,16.0,70,0.00,,,0.00,Wunderground v.1.15,2014-01-02 06:30:00,
2014-01-02 00:35:00,32.8,24.1,30.24,NW,320,14.0,17.0,70,0.00,,,0.00,Wunderground v.1.15,2014-01-02 06:35:00,
2014-01-02 00:40:00,32.7,24.0,30.24,NNW,328,13.0,23.0,70,0.00,,,0.00,Wunderground v.1.15,2014-01-02 06:40:00,
2014-01-02 00:45:00,32.6,23.6,30.24,NW,325,17.0,23.0,69,0.00,,,0.00,Wunderground v.1.15,2014-01-02 06:45:00,
2014-01-02 00:50:00,32.4,23.0,30.25,NNW,327,18.0,18.0,68,0.00,,,0.00,Wunderground v.1.15,2014-01-02 06:50:00,
2014-01-02 01:00:00,32.0,22.6,30.25,NNW,332,16.0,16.0,68,0.00,,,0.00,Wunderground v.1.15,2014-01-02 07:00:00,
2014-01-02 01:10:00,31.7,22.0,30.26,NNW,328,14.0,14.0,67,0.00,,,0.00,Wunderground v.1.15,2014-01-02 07:10:00,
2014-01-02 01:15:00,31.5,21.8,30.26,NNW,347,15.0,15.0,67,0.00,,,0.00,Wunderground v.1.15,2014-01-02 07:15:00,
2014-01-02 01:20:00,31.4,21.7,30.26,NNW,333,15.0,16.0,67,0.00,,,0.00,Wunderground v.1.15,2014-01-02 07:20:00,
2014-01-02 01:25:00,31.2,21.5,30.26,NNW,329,15.0,16.0,67,0.00,,,0.00,Wunderground v.1.15,2014-01-02 07:25:00,
2014-01-02 01:30:00,31.1,21.4,30.27,NNW,332,14.0,18.0,67,0.00,,,0.00,Wunderground v.1.15,2014-01-02 07:30:00,
2014-01-02 01:40:00,31.0,21.7,30.28,NNW,333,14.0,14.0,68,0.00,,,0.00,Wunderground v.1.15,2014-01-02 07:40:00,
2014-01-02 01:45:00,30.9,21.6,30.28,NW,311,14.0,19.0,68,0.00,,,0.00,Wunderground v.1.15,2014-01-02 07:45:00,
2014-01-02 01:50:00,30.8,21.5,30.28,NW,325,13.0,15.0,68,0.00,,,0.00,Wunderground v.1.15,2014-01-02 07:50:00,
2014-01-02 01:55:00,30.8,21.5,30.29,North,355,15.0,15.0,68,0.00,,,0.00,Wunderground v.1.15,2014-01-02 07:55:00,
2014-01-02 02:00:00,30.7,21.4,30.29,NNW,333,14.0,15.0,68,0.00,,,0.00,Wunderground v.1.15,2014-01-02 08:00:00,
2014-01-02 02:10:00,30.6,21.6,30.29,NNW,340,13.0,16.0,69,0.00,,,0.00,Wunderground v.1.15,2014-01-02 08:10:00,
2014-01-02 02:15:00,30.5,21.5,30.29,NNW,329,15.0,16.0,69,0.00,,,0.00,Wunderground v.1.15,2014-01-02 08:15:00,
2014-01-02 02:25:00,30.3,21.7,30.30,NNW,337,17.0,19.0,70,0.00,,,0.00,Wunderground v.1.15,2014-01-02 08:25:00,
2014-01-02 02:30:00,30.1,21.5,30.31,NW,326,19.0,27.0,70,0.00,,,0.00,Wunderground v.1.15,2014-01-02 08:30:00,
2014-01-02 02:35:00,29.8,21.2,30.31,NW,325,20.0,27.0,70,0.00,,,0.00,Wunderground v.1.15,2014-01-02 08:35:00,
2014-01-02 02:40:00,29.6,21.3,30.31,NNW,333,20.0,20.0,71,0.00,,,0.00,Wunderground v.1.15,2014-01-02 08:40:00,
2014-01-02 02:45:00,29.5,21.3,30.31,NNW,332,18.0,20.0,71,0.00,,,0.00,Wunderground v.1.15,2014-01-02 08:45:00,
2014-01-02 02:55:00,29.1,21.2,30.32,NW,319,15.0,16.0,72,0.00,,,0.00,Wunderground v.1.15,2014-01-02 08:55:00,
2014-01-02 03:00:00,28.8,20.9,30.32,NNW,336,17.0,17.0,72,0.00,,,0.00,Wunderground v.1.15,2014-01-02 09:00:00,
2014-01-02 03:10:00,28.4,20.8,30.32,NNW,339,18.0,18.0,73,0.00,,,0.00,Wunderground v.1.15,2014-01-02 09:10:00,
2014-01-02 03:15:00,28.3,20.7,30.32,North,355,18.0,22.0,73,0.00,,,0.00,Wunderground v.1.15,2014-01-02 09:15:00,
2014-01-02 03:20:00,28.2,20.7,30.32,NW,323,19.0,19.0,73,0.00,,,0.00,Wunderground v.1.15,2014-01-02 09:20:00,
2014-01-02 03:25:00,28.1,20.6,30.33,NNW,337,19.0,20.0,73,0.00,,,0.00,Wunderground v.1.15,2014-01-02 09:25:00,
2014-01-02 03:35:00,27.9,20.7,30.33,NNW,346,20.0,26.0,74,0.00,,,0.00,Wunderground v.1.15,2014-01-02 09:35:00,
2014-01-02 03:40:00,27.9,20.7,30.33,NNW,336,21.0,21.0,74,0.00,,,0.00,Wunderground v.1.15,2014-01-02 09:40:00,
2014-01-02 03:45:00,27.8,20.6,30.34,NNW,340,18.0,21.0,74,0.00,,,0.00,Wunderground v.1.15,2014-01-02 09:45:00,
2014-01-02 03:50:00,27.7,20.5,30.34,NNW,329,17.0,17.0,74,0.00,,,0.00,Wunderground v.1.15,2014-01-02 09:50:00,
2014-01-02 03:55:00,27.6,20.4,30.34,NNW,336,17.0,19.0,74,0.00,,,0.00,Wunderground v.1.15,2014-01-02 09:55:00,
2014-01-02 04:00:00,27.5,20.3,30.34,NNW,333,18.0,18.0,74,0.00,,,0.00,Wunderground v.1.15,2014-01-02 10:00:00,
2014-01-02 04:10:00,27.4,20.5,30.35,NNW,346,17.0,17.0,75,0.00,,,0.00,Wunderground v.1.15,2014-01-02 10:10:00,
2014-01-02 04:15:00,27.4,20.5,30.35,NW,320,15.0,20.0,75,0.00,,,0.00,Wunderground v.1.15,2014-01-02 10:15:00,
2014-01-02 04:25:00,27.2,20.3,30.36,NNW,337,16.0,17.0,75,0.00,,,0.00,Wunderground v.1.15,2014-01-02 10:25:00,
2014-01-02 04:30:00,27.1,20.2,30.36,NW,326,15.0,15.0,75,0.00,,,0.00,Wunderground v.1.15,2014-01-02 10:30:00,
2014-01-02 04:35:00,27.0,20.4,30.35,NNW,338,16.0,16.0,76,0.00,,,0.00,Wunderground v.1.15,2014-01-02 10:35:00,
2014-01-02 04:40:00,26.9,20.3,30.36,NW,319,17.0,18.0,76,0.00,,,0.00,Wunderground v.1.15,2014-01-02 10:40:00,
2014-01-02 04:50:00,26.8,19.9,30.36,North,349,17.0,19.0,75,0.00,,,0.00,Wunderground v.1.15,2014-01-02 10:50:00,
2014-01-02 04:55:00,26.7,19.8,30.36,NNW,329,17.0,19.0,75,0.00,,,0.00,Wunderground v.1.15,2014-01-02 10:55:00,
2014-01-02 05:00:00,26.6,19.7,30.36,NNW,346,17.0,17.0,75,0.00,,,0.00,Wunderground v.1.15,2014-01-02 11:00:00,
2014-01-02 05:10:00,26.5,19.6,30.37,NNW,341,15.0,16.0,75,0.00,,,0.00,Wunderground v.1.15,2014-01-02 11:10:00,
2014-01-02 05:15:00,26.3,19.5,30.37,NW,325,15.0,18.0,75,0.00,,,0.00,Wunderground v.1.15,2014-01-02 11:15:00,
2014-01-02 05:25:00,26.2,19.7,30.37,NW,321,14.0,17.0,76,0.00,,,0.00,Wunderground v.1.15,2014-01-02 11:25:00,
2014-01-02 05:30:00,26.1,19.6,30.37,NW,326,13.0,13.0,76,0.00,,,0.00,Wunderground v.1.15,2014-01-02 11:30:00,
2014-01-02 05:35:00,26.0,19.5,30.37,NNE,12,14.0,14.0,76,0.00,,,0.00,Wunderground v.1.15,2014-01-02 11:35:00,
2014-01-02 05:40:00,26.0,19.5,30.38,NNW,330,13.0,16.0,76,0.00,,,0.00,Wunderground v.1.15,2014-01-02 11:40:00,
2014-01-02 05:45:00,25.8,19.3,30.38,NNW,336,13.0,16.0,76,0.00,,,0.00,Wunderground v.1.15,2014-01-02 11:45:00,
2014-01-02 05:55:00,25.8,19.3,30.38,NW,322,14.0,15.0,76,0.00,,,0.00,Wunderground v.1.15,2014-01-02 11:55:00,
2014-01-02 06:00:00,25.7,19.2,30.38,NNW,336,15.0,15.0,76,0.00,,,0.00,Wunderground v.1.15,2014-01-02 12:00:00,
2014-01-02 06:10:00,25.6,19.1,30.39,NNW,328,15.0,15.0,76,0.00,,,0.00,Wunderground v.1.15,2014-01-02 12:10:00,
2014-01-02 06:15:00,25.5,19.0,30.39,NNW,329,14.0,17.0,76,0.00,,,0.00,Wunderground v.1.15,2014-01-02 12:15:00,
2014-01-02 06:20:00,25.4,18.9,30.39,NNW,341,16.0,18.0,76,0.00,,,0.00,Wunderground v.1.15,2014-01-02 12:20:00,
2014-01-02 06:25:00,25.4,18.6,30.39,NNW,333,17.0,18.0,75,0.00,,,0.00,Wunderground v.1.15,2014-01-02 12:25:00,
2014-01-02 06:35:00,25.3,18.8,30.40,NNW,328,12.0,20.0,76,0.00,,,0.00,Wunderground v.1.15,2014-01-02 12:35:00,
2014-01-02 06:40:00,25.2,18.7,30.40,NW,322,13.0,17.0,76,0.00,,,0.00,Wunderground v.1.15,2014-01-02 12:40:00,
2014-01-02 06:45:00,25.1,18.6,30.41,NNW,327,15.0,17.0,76,0.00,,,0.00,Wunderground v.1.15,2014-01-02 12:45:00,
2014-01-02 06:50:00,24.9,18.4,30.41,NNW,330,15.0,18.0,76,0.00,,,0.00,Wunderground v.1.15,2014-01-02 12:50:00,
2014-01-02 06:55:00,24.9,18.4,30.41,NW,320,15.0,18.0,76,0.00,,,0.00,Wunderground v.1.15,2014-01-02 12:55:00,
2014-01-02 07:00:00,24.8,18.0,30.41,NNW,329,15.0,15.0,75,0.00,,,0.00,Wunderground v.1.15,2014-01-02 13:00:00,
2014-01-02 07:10:00,24.7,17.9,30.42,NNW,330,13.0,13.0,75,0.00,,,0.00,Wunderground v.1.15,2014-01-02 13:10:00,
2014-01-02 07:20:00,24.5,17.7,30.42,NW,323,13.0,13.0,75,0.00,,,0.00,Wunderground v.1.15,2014-01-02 13:20:00,
2014-01-02 07:25:00,24.5,17.7,30.42,NNW,338,14.0,18.0,75,0.00,,,0.00,Wunderground v.1.15,2014-01-02 13:25:00,
2014-01-02 07:30:00,24.5,17.7,30.42,NNW,343,12.0,12.0,75,0.00,,,0.00,Wunderground v.1.15,2014-01-02 13:30:00,
2014-01-02 07:35:00,24.4,17.6,30.42,NNW,331,11.0,12.0,75,0.00,,,0.00,Wunderground v.1.15,2014-01-02 13:35:00,
2014-01-02 07:40:00,24.4,17.6,30.43,NW,325,11.0,14.0,75,0.00,,,0.00,Wunderground v.1.15,2014-01-02 13:40:00,
2014-01-02 07:50:00,24.4,17.6,30.43,NNW,328,13.0,13.0,75,0.00,,,0.00,Wunderground v.1.15,2014-01-02 13:50:00,
2014-01-02 07:55:00,24.4,17.6,30.44,NW,325,13.0,13.0,75,0.00,,,0.00,Wunderground v.1.15,2014-01-02 13:55:00,
2014-01-02 08:00:00,24.5,17.7,30.44,NNW,328,13.0,14.0,75,0.00,,,0.00,Wunderground v.1.15,2014-01-02 14:00:00,
2014-01-02 08:10:00,24.9,17.8,30.44,NNW,341,14.0,18.0,74,0.00,,,0.00,Wunderground v.1.15,2014-01-02 14:10:00,
2014-01-02 08:15:00,25.0,17.6,30.45,NNW,340,15.0,18.0,73,0.00,,,0.00,Wunderground v.1.15,2014-01-02 14:15:00,
2014-01-02 08:20:00,25.2,17.8,30.45,NNW,345,14.0,14.0,73,0.00,,,0.00,Wunderground v.1.15,2014-01-02 14:20:00,
2014-01-02 08:30:00,25.7,17.6,30.45,North,355,13.0,13.0,71,0.00,,,0.00,Wunderground v.1.15,2014-01-02 14:30:00,
2014-01-02 08:35:00,26.0,17.9,30.45,North,360,12.0,13.0,71,0.00,,,0.00,Wunderground v.1.15,2014-01-02 14:35:00,
2014-01-02 08:40:00,26.3,17.8,30.45,NW,315,11.0,15.0,70,0.00,,,0.00,Wunderground v.1.15,2014-01-02 14:40:00,
2014-01-02 08:45:00,26.3,17.8,30.45,NNW,329,12.0,17.0,70,0.00,,,0.00,Wunderground v.1.15,2014-01-02 14:45:00,
2014-01-02 08:50:00,26.5,17.7,30.46,NNW,336,14.0,14.0,69,0.00,,,0.00,Wunderground v.1.15,2014-01-02 14:50:00,
2014-01-02 09:00:00,26.8,17.6,30.46,NNW,341,14.0,14.0,68,0.00,,,0.00,Wunderground v.1.15,2014-01-02 15:00:00,
2014-01-02 09:10:00,27.3,17.4,30.46,NW,321,13.0,13.0,66,0.00,,,0.00,Wunderground v.1.15,2014-01-02 15:10:00,
2014-01-02 09:20:00,27.7,17.5,30.47,North,9,13.0,13.0,65,0.00,,,0.00,Wunderground v.1.15,2014-01-02 15:20:00,
2014-01-02 09:25:00,27.9,17.6,30.47,NNW,331,12.0,14.0,65,0.00,,,0.00,Wunderground v.1.15,2014-01-02 15:25:00,
2014-01-02 09:30:00,28.0,17.4,30.48,NNW,348,13.0,13.0,64,0.00,,,0.00,Wunderground v.1.15,2014-01-02 15:30:00,
2014-01-02 09:35:00,28.6,18.0,30.48,NNW,335,12.0,18.0,64,0.00,,,0.00,Wunderground v.1.15,2014-01-02 15:35:00,
2014-01-02 09:45:00,28.9,17.5,30.48,North,351,13.0,18.0,62,0.00,,,0.00,Wunderground v.1.15,2014-01-02 15:45:00,
2014-01-02 09:50:00,28.9,17.5,30.49,NNW,341,14.0,14.0,62,0.00,,,0.00,Wunderground v.1.15,2014-01-02 15:50:00,
2014-01-02 09:55:00,29.6,17.8,30.49,North,355,12.0,14.0,61,0.00,,,0.00,Wunderground v.1.15,2014-01-02 15:55:00,
2014-01-02 10:00:00,29.5,18.1,30.49,North,11,11.0,11.0,62,0.00,,,0.00,Wunderground v.1.15,2014-01-02 16:00:00,
2014-01-02 10:10:00,30.0,18.2,30.49,NW,310,12.0,13.0,61,0.00,,,0.00,Wunderground v.1.15,2014-01-02 16:10:00,
2014-01-02 10:15:00,30.3,18.1,30.49,NW,322,13.0,13.0,60,0.00,,,0.00,Wunderground v.1.15,2014-01-02 16:15:00,
2014-01-02 10:20:00,30.5,18.3,30.50,NNW,335,12.0,12.0,60,0.00,,,0.00,Wunderground v.1.15,2014-01-02 16:20:00,
2014-01-02 10:30:00,31.0,17.9,30.49,NNW,329,12.0,18.0,58,0.00,,,0.00,Wunderground v.1.15,2014-01-02 16:30:00,
2014-01-02 10:35:00,31.1,18.0,30.50,North,355,12.0,18.0,58,0.00,,,0.00,Wunderground v.1.15,2014-01-02 16:35:00,
2014-01-02 10:40:00,31.7,18.6,30.50,NNW,332,11.0,14.0,58,0.00,,,0.00,Wunderground v.1.15,2014-01-02 16:40:00,
2014-01-02 10:45:00,31.7,18.2,30.50,NNW,327,12.0,14.0,57,0.00,,,0.00,Wunderground v.1.15,2014-01-02 16:45:00,
2014-01-02 10:55:00,31.7,18.2,30.50,NNW,337,13.0,16.0,57,0.00,,,0.00,Wunderground v.1.15,2014-01-02 16:55:00,
2014-01-02 11:00:00,31.9,18.4,30.50,NW,304,13.0,13.0,57,0.00,,,0.00,Wunderground v.1.15,2014-01-02 17:00:00,
2014-01-02 11:10:00,32.5,18.5,30.50,NNW,337,13.0,19.0,56,0.00,,,0.00,Wunderground v.1.15,2014-01-02 17:10:00,
2014-01-02 11:15:00,32.4,18.4,30.50,NW,326,13.0,19.0,56,0.00,,,0.00,Wunderground v.1.15,2014-01-02 17:15:00,
2014-01-02 11:20:00,32.8,18.8,30.49,NNW,340,13.0,13.0,56,0.00,,,0.00,Wunderground v.1.15,2014-01-02 17:20:00,
2014-01-02 11:25:00,33.6,19.1,30.49,NW,325,11.0,17.0,55,0.00,,,0.00,Wunderground v.1.15,2014-01-02 17:25:00,
2014-01-02 11:30:00,33.6,18.3,30.49,NW,319,11.0,11.0,53,0.00,,,0.00,Wunderground v.1.15,2014-01-02 17:30:00,
2014-01-02 11:35:00,34.1,19.6,30.49,NNW,327,11.0,11.0,55,0.00,,,0.00,Wunderground v.1.15,2014-01-02 17:35:00,
2014-01-02 11:45:00,34.8,19.4,30.49,NNW,345,9.0,14.0,53,0.00,,,0.00,Wunderground v.1.15,2014-01-02 17:45:00,
2014-01-02 11:50:00,35.1,19.7,30.48,NNW,339,9.0,9.0,53,0.00,,,0.00,Wunderground v.1.15,2014-01-02 17:50:00,
2014-01-02 11:55:00,35.0,19.1,30.47,NNW,327,11.0,15.0,52,0.00,,,0.00,Wunderground v.1.15,2014-01-02 17:55:00,
2014-01-02 12:00:00,35.2,19.3,30.47,North,9,11.0,11.0,52,0.00,,,0.00,Wunderground v.1.15,2014-01-02 18:00:00,
2014-01-02 12:10:00,35.4,19.5,30.47,NW,324,11.0,17.0,52,0.00,,,0.00,Wunderground v.1.15,2014-01-02 18:10:00,
2014-01-02 12:15:00,35.9,19.0,30.47,North,360,11.0,17.0,50,0.00,,,0.00,Wunderground v.1.15,2014-01-02 18:15:00,
2014-01-02 12:20:00,36.4,19.5,30.47,NNW,338,10.0,10.0,50,0.00,,,0.00,Wunderground v.1.15,2014-01-02 18:20:00,
2014-01-02 12:30:00,37.2,20.2,30.47,NW,315,8.0,8.0,50,0.00,,,0.00,Wunderground v.1.15,2014-01-02 18:30:00,
2014-01-02 12:35:00,37.5,19.6,30.47,NW,325,8.0,12.0,48,0.00,,,0.00,Wunderground v.1.15,2014-01-02 18:35:00,
2014-01-02 12:40:00,37.2,19.8,30.46,NW,317,10.0,10.0,49,0.00,,,0.00,Wunderground v.1.15,2014-01-02 18:40:00,
2014-01-02 12:45:00,37.4,20.0,30.46,NW,317,9.0,10.0,49,0.00,,,0.00,Wunderground v.1.15,2014-01-02 18:45:00,
2014-01-02 12:55:00,38.2,19.7,30.45,NNW,329,9.0,14.0,47,0.00,,,0.00,Wunderground v.1.15,2014-01-02 18:55:00,
2014-01-02 13:00:00,38.4,19.9,30.45,NNW,343,8.0,8.0,47,0.00,,,0.00,Wunderground v.1.15,2014-01-02 19:00:00,
2014-01-02 13:10:00,38.8,20.3,30.45,North,360,8.0,8.0,47,0.00,,,0.00,Wunderground v.1.15,2014-01-02 19:10:00,
2014-01-02 13:15:00,39.1,20.0,30.45,NW,321,8.0,11.0,46,0.00,,,0.00,Wunderground v.1.15,2014-01-02 19:15:00,
2014-01-02 13:20:00,39.5,19.9,30.45,North,355,8.0,12.0,45,0.00,,,0.00,Wunderground v.1.15,2014-01-02 19:20:00,
2014-01-02 13:25:00,39.9,19.7,30.45,NW,313,8.0,12.0,44,0.00,,,0.00,Wunderground v.1.15,2014-01-02 19:25:00,
2014-01-02 13:30:00,39.9,19.2,30.45,North,9,7.0,7.0,43,0.00,,,0.00,Wunderground v.1.15,2014-01-02 19:30:00,
2014-01-02 13:40:00,40.1,19.9,30.45,NW,322,7.0,7.0,44,0.00,,,0.00,Wunderground v.1.15,2014-01-02 19:40:00,
2014-01-02 13:45:00,40.5,19.7,30.45,NNW,330,8.0,10.0,43,0.00,,,0.00,Wunderground v.1.15,2014-01-02 19:45:00,
2014-01-02 13:50:00,40.8,20.0,30.44,NW,310,8.0,11.0,43,0.00,,,0.00,Wunderground v.1.15,2014-01-02 19:50:00,
2014-01-02 13:55:00,41.3,20.5,30.44,WNW,301,6.0,12.0,43,0.00,,,0.00,Wunderground v.1.15,2014-01-02 19:55:00,
2014-01-02 14:00:00,41.8,20.4,30.44,NW,322,7.0,14.0,42,0.00,,,0.00,Wunderground v.1.15,2014-01-02 20:00:00,
2014-01-02 14:10:00,41.4,19.4,30.44,NW,326,10.0,10.0,41,0.00,,,0.00,Wunderground v.1.15,2014-01-02 20:10:00,
2014-01-02 14:20:00,42.5,20.4,30.44,NW,323,7.0,7.0,41,0.00,,,0.00,Wunderground v.1.15,2014-01-02 20:20:00,
2014-01-02 14:25:00,42.3,20.8,30.44,NW,314,8.0,16.0,42,0.00,,,0.00,Wunderground v.1.15,2014-01-02 20:25:00,
2014-01-02 14:30:00,42.4,20.3,30.44,NW,311,8.0,8.0,41,0.00,,,0.00,Wunderground v.1.15,2014-01-02 20:30:00,
2014-01-02 14:35:00,42.5,19.8,30.44,NW,315,8.0,11.0,40,0.00,,,0.00,Wunderground v.1.15,2014-01-02 20:35:00,
2014-01-02 14:40:00,42.1,20.1,30.44,NW,319,9.0,9.0,41,0.00,,,0.00,Wunderground v.1.15,2014-01-02 20:40:00,
2014-01-02 14:50:00,42.7,20.0,30.44,NW,308,8.0,9.0,40,0.00,,,0.00,Wunderground v.1.15,2014-01-02 20:50:00,
2014-01-02 14:55:00,43.0,20.9,30.44,NNW,329,8.0,9.0,41,0.00,,,0.00,Wunderground v.1.15,2014-01-02 20:55:00,
2014-01-02 15:00:00,43.1,20.4,30.43,NNW,329,8.0,11.0,40,0.00,,,0.00,Wunderground v.1.15,2014-01-02 21:00:00,
2014-01-02 15:10:00,43.4,20.1,30.44,NW,325,7.0,7.0,39,0.00,,,0.00,Wunderground v.1.15,2014-01-02 21:10:00,
2014-01-02 15:15:00,43.3,20.0,30.44,NW,313,7.0,7.0,39,0.00,,,0.00,Wunderground v.1.15,2014-01-02 21:15:00,
2014-01-02 15:20:00,43.3,20.6,30.44,NW,315,8.0,8.0,40,0.00,,,0.00,Wunderground v.1.15,2014-01-02 21:20:00,
2014-01-02 15:25:00,43.6,20.2,30.44,NW,316,7.0,8.0,39,0.00,,,0.00,Wunderground v.1.15,2014-01-02 21:25:00,
2014-01-02 15:35:00,43.7,20.3,30.44,NW,312,6.0,6.0,39,0.00,,,0.00,Wunderground v.1.15,2014-01-02 21:35:00,
2014-01-02 15:40:00,43.3,20.6,30.44,NW,309,6.0,6.0,40,0.00,,,0.00,Wunderground v.1.15,2014-01-02 21:40:00,
2014-01-02 15:45:00,43.6,20.8,30.44,NW,321,6.0,7.0,40,0.00,,,0.00,Wunderground v.1.15,2014-01-02 21:45:00,
2014-01-02 15:50:00,43.5,20.2,30.44,NW,314,7.0,7.0,39,0.00,,,0.00,Wunderground v.1.15,2014-01-02 21:50:00,
2014-01-02 16:00:00,43.6,20.8,30.44,NW,325,5.0,8.0,40,0.00,,,0.00,Wunderground v.1.15,2014-01-02 22:00:00,
2014-01-02 16:10:00,43.7,20.3,30.44,North,9,6.0,9.0,39,0.00,,,0.00,Wunderground v.1.15,2014-01-02 22:10:00,
2014-01-02 16:15:00,43.8,20.4,30.44,North,355,7.0,9.0,39,0.00,,,0.00,Wunderground v.1.15,2014-01-02 22:15:00,
2014-01-02 16:20:00,43.7,19.7,30.44,North,9,6.0,6.0,38,0.00,,,0.00,Wunderground v.1.15,2014-01-02 22:20:00,
2014-01-02 16:25:00,43.9,19.9,30.44,NNW,338,5.0,6.0,38,0.00,,,0.00,Wunderground v.1.15,2014-01-02 22:25:00,
2014-01-02 16:30:00,43.4,19.5,30.44,North,360,5.0,7.0,38,0.00,,,0.00,Wunderground v.1.15,2014-01-02 22:30:00,
2014-01-02 16:40:00,43.2,19.9,30.43,North,349,6.0,9.0,39,0.00,,,0.00,Wunderground v.1.15,2014-01-02 22:40:00,
2014-01-02 16:45:00,42.8,20.1,30.43,NW,326,7.0,9.0,40,0.00,,,0.00,Wunderground v.1.15,2014-01-02 22:45:00,
2014-01-02 16:50:00,42.5,19.8,30.44,North,9,7.0,7.0,40,0.00,,,0.00,Wunderground v.1.15,2014-01-02 22:50:00,
2014-01-02 16:55:00,42.5,19.8,30.44,North,5,6.0,7.0,40,0.00,,,0.00,Wunderground v.1.15,2014-01-02 22:55:00,
2014-01-02 17:00:00,42.1,19.5,30.44,NNW,348,6.0,6.0,40,0.00,,,0.00,Wunderground v.1.15,2014-01-02 23:00:00,
2014-01-02 17:10:00,41.4,19.4,30.44,North,355,5.0,5.0,41,0.00,,,0.00,Wunderground v.1.15,2014-01-02 23:10:00,
2014-01-02 17:15:00,41.1,19.2,30.44,North,9,5.0,12.0,41,0.00,,,0.00,Wunderground v.1.15,2014-01-02 23:15:00,
2014-01-02 17:25:00,40.5,19.2,30.44,North,11,5.0,6.0,42,0.00,,,0.00,Wunderground v.1.15,2014-01-02 23:25:00,
2014-01-02 17:30:00,40.3,19.5,30.44,NNW,339,5.0,7.0,43,0.00,,,0.00,Wunderground v.1.15,2014-01-02 23:30:00,
2014-01-02 17:35:00,39.9,19.2,30.44,NNW,342,5.0,7.0,43,0.00,,,0.00,Wunderground v.1.15,2014-01-02 23:35:00,
2014-01-02 17:40:00,39.6,19.5,30.44,NNW,345,4.0,4.0,44,0.00,,,0.00,Wunderground v.1.15,2014-01-02 23:40:00,
2014-01-02 17:45:00,39.4,19.3,30.44,North,360,4.0,4.0,44,0.00,,,0.00,Wunderground v.1.15,2014-01-02 23:45:00,
2014-01-02 17:55:00,39.1,19.5,30.44,North,5,3.0,7.0,45,0.00,,,0.00,Wunderground v.1.15,2014-01-02 23:55:00,
2014-01-02 18:00:00,38.9,19.3,30.44,North,5,2.0,2.0,45,0.00,,,0.00,Wunderground v.1.15,2014-01-03 00:00:00,
2014-01-02 18:10:00,38.5,19.5,30.45,North,5,0.0,0.0,46,0.00,,,0.00,Wunderground v.1.15,2014-01-03 00:10:00,
2014-01-02 18:15:00,38.3,19.3,30.45,North,5,1.0,1.0,46,0.00,,,0.00,Wunderground v.1.15,2014-01-03 00:15:00,
2014-01-02 18:20:00,38.0,19.5,30.44,North,5,1.0,4.0,47,0.00,,,0.00,Wunderground v.1.15,2014-01-03 00:20:00,
2014-01-02 18:25:00,37.8,19.3,30.45,North,5,1.0,4.0,47,0.00,,,0.00,Wunderground v.1.15,2014-01-03 00:25:00,
2014-01-02 18:35:00,37.4,19.5,30.45,North,5,0.0,1.0,48,0.00,,,0.00,Wunderground v.1.15,2014-01-03 00:35:00,
2014-01-02 18:40:00,37.1,19.7,30.45,North,5,0.0,0.0,49,0.00,,,0.00,Wunderground v.1.15,2014-01-03 00:40:00,
2014-01-02 18:45:00,36.8,19.4,30.45,North,5,0.0,0.0,49,0.00,,,0.00,Wunderground v.1.15,2014-01-03 00:45:00,
2014-01-02 18:50:00,36.5,19.6,30.45,North,5,0.0,0.0,50,0.00,,,0.00,Wunderground v.1.15,2014-01-03 00:50:00,
2014-01-02 18:55:00,36.2,19.8,30.45,North,5,0.0,0.0,51,0.00,,,0.00,Wunderground v.1.15,2014-01-03 00:55:00,
2014-01-02 19:00:00,35.9,19.5,30.45,North,5,0.0,0.0,51,0.00,,,0.00,Wunderground v.1.15,2014-01-03 01:00:00,
2014-01-02 19:10:00,35.5,19.6,30.45,North,5,0.0,0.0,52,0.00,,,0.00,Wunderground v.1.15,2014-01-03 01:10:00,
2014-01-02 19:20:00,35.2,19.8,30.46,North,5,0.0,0.0,53,0.00,,,0.00,Wunderground v.1.15,2014-01-03 01:20:00,
2014-01-02 19:25:00,34.9,19.5,30.46,North,5,0.0,0.0,53,0.00,,,0.00,Wunderground v.1.15,2014-01-03 01:25:00,
2014-01-02 19:30:00,34.6,19.6,30.46,North,5,0.0,0.0,54,0.00,,,0.00,Wunderground v.1.15,2014-01-03 01:30:00,
2014-01-02 19:35:00,34.2,19.3,30.46,North,5,0.0,0.0,54,0.00,,,0.00,Wunderground v.1.15,2014-01-03 01:35:00,
2014-01-02 19:40:00,33.9,19.4,30.46,North,5,0.0,0.0,55,0.00,,,0.00,Wunderground v.1.15,2014-01-03 01:40:00,
2014-01-02 19:50:00,33.2,19.6,30.46,North,5,0.0,0.0,57,0.00,,,0.00,Wunderground v.1.15,2014-01-03 01:50:00,
2014-01-02 19:55:00,33.0,19.8,30.46,North,5,0.0,0.0,58,0.00,,,0.00,Wunderground v.1.15,2014-01-03 01:55:00,
2014-01-02 20:00:00,32.7,19.9,30.47,North,5,0.0,0.0,59,0.00,,,0.00,Wunderground v.1.15,2014-01-03 02:00:00,
2014-01-02 20:10:00,32.1,20.2,30.47,North,5,0.0,0.0,61,0.00,,,0.00,Wunderground v.1.15,2014-01-03 02:10:00,
2014-01-02 20:15:00,31.8,20.3,30.47,North,5,0.0,0.0,62,0.00,,,0.00,Wunderground v.1.15,2014-01-03 02:15:00,
2014-01-02 20:20:00,31.6,20.1,30.47,North,5,0.0,0.0,62,0.00,,,0.00,Wunderground v.1.15,2014-01-03 02:20:00,
2014-01-02 20:25:00,31.5,20.3,30.47,North,5,0.0,0.0,63,0.00,,,0.00,Wunderground v.1.15,2014-01-03 02:25:00,
2014-01-02 20:35:00,31.1,20.3,30.47,North,5,0.0,0.0,64,0.00,,,0.00,Wunderground v.1.15,2014-01-03 02:35:00,
2014-01-02 20:40:00,30.9,20.1,30.47,North,5,0.0,0.0,64,0.00,,,0.00,Wunderground v.1.15,2014-01-03 02:40:00,
2014-01-02 20:45:00,30.6,20.2,30.47,North,5,0.0,0.0,65,0.00,,,0.00,Wunderground v.1.15,2014-01-03 02:45:00,
2014-01-02 20:50:00,30.4,20.4,30.47,North,5,0.0,0.0,66,0.00,,,0.00,Wunderground v.1.15,2014-01-03 02:50:00,
2014-01-02 21:00:00,30.1,20.5,30.47,North,5,0.0,0.0,67,0.00,,,0.00,Wunderground v.1.15,2014-01-03 03:00:00,
2014-01-02 21:10:00,29.8,20.5,30.48,North,5,0.0,0.0,68,0.00,,,0.00,Wunderground v.1.15,2014-01-03 03:10:00,
2014-01-02 21:15:00,29.7,20.4,30.48,North,5,0.0,0.0,68,0.00,,,0.00,Wunderground v.1.15,2014-01-03 03:15:00,
2014-01-02 21:20:00,29.7,20.4,30.48,North,5,0.0,0.0,68,0.00,,,0.00,Wunderground v.1.15,2014-01-03 03:20:00,
2014-01-02 21:25:00,29.5,20.2,30.48,North,5,0.0,0.0,68,0.00,,,0.00,Wunderground v.1.15,2014-01-03 03:25:00,
2014-01-02 21:30:00,29.3,20.0,30.48,North,5,0.0,0.0,68,0.00,,,0.00,Wunderground v.1.15,2014-01-03 03:30:00,
2014-01-02 21:40:00,29.2,20.6,30.48,North,5,0.0,0.0,70,0.00,,,0.00,Wunderground v.1.15,2014-01-03 03:40:00,
2014-01-02 21:45:00,29.2,20.6,30.48,North,5,0.0,0.0,70,0.00,,,0.00,Wunderground v.1.15,2014-01-03 03:45:00,
2014-01-02 21:50:00,29.2,21.0,30.48,North,5,0.0,0.0,71,0.00,,,0.00,Wunderground v.1.15,2014-01-03 03:50:00,
2014-01-02 21:55:00,29.2,21.0,30.48,North,5,0.0,0.0,71,0.00,,,0.00,Wunderground v.1.15,2014-01-03 03:55:00,
2014-01-02 22:00:00,29.1,21.2,30.48,North,5,0.0,0.0,72,0.00,,,0.00,Wunderground v.1.15,2014-01-03 04:00:00,
2014-01-02 22:10:00,28.9,21.0,30.48,North,5,0.0,0.0,72,0.00,,,0.00,Wunderground v.1.15,2014-01-03 04:10:00,
2014-01-02 22:20:00,28.8,20.9,30.48,North,5,0.0,0.0,72,0.00,,,0.00,Wunderground v.1.15,2014-01-03 04:20:00,
2014-01-02 22:25:00,28.8,20.9,30.48,North,5,0.0,0.0,72,0.00,,,0.00,Wunderground v.1.15,2014-01-03 04:25:00,
2014-01-02 22:30:00,28.8,20.9,30.48,North,5,0.0,0.0,72,0.00,,,0.00,Wunderground v.1.15,2014-01-03 04:30:00,
2014-01-02 22:35:00,28.7,20.8,30.49,North,5,0.0,0.0,72,0.00,,,0.00,Wunderground v.1.15,2014-01-03 04:35:00,
2014-01-02 22:40:00,28.6,21.0,30.48,North,5,0.0,0.0,73,0.00,,,0.00,Wunderground v.1.15,2014-01-03 04:40:00,
2014-01-02 22:50:00,28.3,21.1,30.48,North,5,0.0,0.0,74,0.00,,,0.00,Wunderground v.1.15,2014-01-03 04:50:00,
2014-01-02 22:55:00,28.1,20.9,30.48,North,5,0.0,0.0,74,0.00,,,0.00,Wunderground v.1.15,2014-01-03 04:55:00,
2014-01-02 23:00:00,27.9,20.7,30.48,North,5,0.0,0.0,74,0.00,,,0.00,Wunderground v.1.15,2014-01-03 05:00:00,
2014-01-02 23:05:00,27.8,20.9,30.48,North,5,0.0,0.0,75,0.00,,,0.00,Wunderground v.1.15,2014-01-03 05:05:00,
2014-01-02 23:10:00,27.7,20.8,30.47,North,5,0.0,0.0,75,0.00,,,0.00,Wunderground v.1.15,2014-01-03 05:10:00,
2014-01-02 23:15:00,27.5,20.6,30.47,North,5,0.0,0.0,75,0.00,,,0.00,Wunderground v.1.15,2014-01-03 05:15:00,
2014-01-02 23:20:00,27.5,21.2,30.47,North,5,0.0,0.0,77,0.00,,,0.00,Wunderground v.1.15,2014-01-03 05:20:00,
2014-01-02 23:30:00,27.5,21.2,30.48,North,5,0.0,0.0,77,0.00,,,0.00,Wunderground v.1.15,2014-01-03 05:30:00,
2014-01-02 23:35:00,27.5,21.5,30.48,North,5,0.0,0.0,78,0.00,,,0.00,Wunderground v.1.15,2014-01-03 05:35:00,
2014-01-02 23:40:00,27.6,21.6,30.48,North,5,0.0,0.0,78,0.00,,,0.00,Wunderground v.1.15,2014-01-03 05:40:00,
2014-01-02 23:45:00,27.7,21.7,30.48,North,5,0.0,0.0,78,0.00,,,0.00,Wunderground v.1.15,2014-01-03 05:45:00,
2014-01-02 23:55:00,27.6,21.3,30.48,North,5,0.0,0.0,77,0.00,,,0.00,Wunderground v.1.15,2014-01-03 05:55:00,